Weather in Ishimovo

Russia / Perm Krai     56°39′45″N   56°48′00″E
temp.,
°C
wind,
m/s
gust,
m/s
humid.,
%
clouds,
%
prec.,
mm/h
press.,
hPa
HPBL,
m
1 march, mon
mon123:00−14ene379593 0.2 1010312
02:00−16ne369582 0.1 1012249
05:00−17ne369584 0.1 1014261
08:00−17ne369591 0.1 1015269
11:00−15ne349284 0.1 1016353
14:00−12ene2387100 0.1 1016462
17:00−11n2289100 0.1 1017387
20:00−17n119984 0.0 101620
2 march, tue
tue223:00−18ssw239858 0.0 101623
02:00−18ssw389894 0.1 1015200
05:00−20ssw5109897 0.1 1013309
08:00−19ssw61395100 0.0 1010376
11:00−16ssw71493100 0.1 1008430
14:00−13ssw71391100 0.3 1004586
17:00−12ssw71392100 0.6 1002607
20:00−12ssw61491100 0.2 1000560
3 march, wed
wed323:00−10ssw61493100 0.4 999521
02:00−9ssw61392100 0.4 996480
05:00−7ssw51193100 0.6 995396
08:00−5ssw4996100 0.4 994315
11:00−4wsw5894100 0.9 996473
14:00−4sw4793100 0.3 996536
17:00−3wsw3694100 0.6 997509
20:00−5w3696100 0.5 997241
4 march, thu
thu423:00−5sw3896100 1.3 999353
02:00−7wnw4994100 0.9 998453
05:00−13w359691 1.0 100093
08:00−14wsw369767 0.0 1001157
11:00−10wsw489384 0.1 1002436
14:00−7sw5990100 0.1 1001676
17:00−7sw51091100 0.3 1001729
20:00−9sw41094100 0.2 1000520
5 march, fri
fri523:00−7ssw61393100 0.8 998688
02:00−6ssw71593100 1.1 994828
05:00−4ssw71495100 2.6 990874
08:00−2sw71495100 2.8 9881012
11:00−2w81295100 5.1 988928
14:00−6w81285100 0.8 9931069
17:00−6w71386100 1.0 10001090
20:00−10w41290100 0.1 1005701